Patterson, LA

8:27 AM CST on December 03, 2016 (GMT -0600)
Williams Memorial

Weather History for KPTN - April, 2013

Change the Weather History Date:

Tuesday, April 16, 2013

  Actual Average Record
Temperature  
Mean Temperature 78 °F -  
Max Temperature 82 °F 74 °F 84 °F (2012)
Min Temperature 73 °F 57 °F 42 °F (2007)
Cooling Degree Days 12    
Growing Degree Days 28 (Base 50)    
Moisture  
Dew Point 73 °F    
Average Humidity 89    
Maximum Humidity 94    
Minimum Humidity 79    
Precipitation  
Precipitation 0.01 in - - ()
Sea Level Pressure  
Sea Level Pressure 30.03 in    
Wind  
Wind Speed 10 mph (SE)    
Max Wind Speed 16 mph    
Max Gust Speed 23 mph    
Visibility 10 miles    
Events      
Averages and records for this station are not official NWS values.
T = Trace of Precipitation, MM = Missing Value Source: NWS Daily Summary

Daily Weather History Graph

Daily Weather History Graph

Search for Another Location

Airport or City:

Trip Planner

Search our weather history database for the weather conditions in past years. The results will help you decide how hot, cold, wet, or windy it might be!

Date:

Astronomy

Apr. 16, 2013 Rise Set
Actual Time 6:37 AM CDT 7:33 PM CDT
Civil Twilight 6:12 AM CDT 7:57 PM CDT
Nautical Twilight 5:44 AM CDT 8:26 PM CDT
Astronomical Twilight 5:14 AM CDT 8:56 PM CDT
Moon 11:07 AM CDT (4/16) 12:18 AM CDT (4/16)
Length of Visible Light 13h 44m
Length of Day
12h 55m
Waxing Crescent, 33% of the Moon is Illuminated
Apr 16
Waxing Crescent
Apr 18
First Quarter
Apr 25
Full
May 2
Last Quarter
May 9
New

Hourly Weather History & Observations

Time (CDT) Temp. Heat Index Dew Point Humidity Pressure Visibility Wind Dir Wind Speed Gust Speed Precip Events Conditions
12:15 AM 73.4 °F - 71.6 °F 94% 29.97 in 10.0 mi SE 8.1 mph - N/A   Overcast
12:35 AM 73.4 °F - 71.6 °F 94% 29.97 in 10.0 mi ESE 9.2 mph - N/A   Overcast
12:55 AM 73.4 °F - 71.6 °F 94% 29.97 in 10.0 mi SE 11.5 mph 16.1 mph N/A   Overcast
1:15 AM 73.4 °F - 71.6 °F 94% 29.97 in 10.0 mi ESE 11.5 mph - 0.01 in   Overcast
1:35 AM 73.4 °F - 71.6 °F 94% 29.97 in 10.0 mi ESE 11.5 mph 16.1 mph 0.01 in   Overcast
1:55 AM 73.4 °F - 71.6 °F 94% 29.96 in 10.0 mi ESE 10.4 mph - 0.01 in   Overcast
2:15 AM 73.4 °F - 71.6 °F 94% 29.96 in 10.0 mi SE 9.2 mph - N/A   Overcast
2:35 AM 73.4 °F - 71.6 °F 94% 29.96 in 10.0 mi SE 9.2 mph - N/A   Overcast
2:55 AM 73.4 °F - 71.6 °F 94% 29.96 in 10.0 mi SE 9.2 mph - N/A   Overcast
3:15 AM 73.4 °F - 71.6 °F 94% 29.96 in 10.0 mi ESE 10.4 mph - N/A   Overcast
3:35 AM 73.4 °F - 71.6 °F 94% 29.96 in 10.0 mi SE 5.8 mph - N/A   Overcast
3:55 AM 73.4 °F - 71.6 °F 94% 29.97 in 10.0 mi ESE 8.1 mph - N/A   Overcast
4:15 AM 73.4 °F - 71.6 °F 94% 29.97 in 10.0 mi SE 8.1 mph - N/A   Overcast
4:35 AM 73.4 °F - 71.6 °F 94% 29.97 in 10.0 mi ESE 6.9 mph - N/A   Overcast
4:55 AM 73.4 °F - 71.6 °F 94% 29.98 in 10.0 mi ESE 8.1 mph - N/A   Overcast
5:15 AM 73.4 °F - 71.6 °F 94% 29.98 in 10.0 mi SE 10.4 mph - N/A   Overcast
5:35 AM 73.4 °F - 71.6 °F 94% 29.98 in 10.0 mi SE 8.1 mph - N/A   Overcast
5:55 AM 73.4 °F - 71.6 °F 94% 29.99 in 10.0 mi ESE 8.1 mph - N/A   Overcast
6:15 AM 73.4 °F - 71.6 °F 94% 29.99 in 10.0 mi ESE 10.4 mph - N/A   Overcast
6:35 AM 73.4 °F - 71.6 °F 94% 29.99 in 10.0 mi ESE 11.5 mph 16.1 mph N/A   Overcast
6:55 AM 73.4 °F - 71.6 °F 94% 30.00 in 10.0 mi ESE 10.4 mph - N/A   Overcast
7:15 AM 73.4 °F - 71.6 °F 94% 30.01 in 10.0 mi SE 10.4 mph 16.1 mph N/A   Overcast
7:35 AM 73.4 °F - 71.6 °F 94% 30.01 in 10.0 mi SE 10.4 mph - N/A   Overcast
7:55 AM 73.4 °F - 71.6 °F 94% 30.03 in 10.0 mi ESE 9.2 mph - N/A   Overcast
8:15 AM 73.4 °F - 71.6 °F 94% 30.02 in 10.0 mi ESE 11.5 mph 16.1 mph N/A   Overcast
8:35 AM 73.4 °F - 71.6 °F 94% 30.03 in 10.0 mi ESE 10.4 mph - N/A   Overcast
8:55 AM 73.4 °F - 71.6 °F 94% 30.03 in 10.0 mi ESE 11.5 mph 17.3 mph N/A   Overcast
9:15 AM 75.2 °F - 71.6 °F 89% 30.03 in 10.0 mi ESE 10.4 mph - N/A   Overcast
9:35 AM 75.2 °F - 71.6 °F 89% 30.04 in 10.0 mi SE 12.7 mph 18.4 mph N/A   Overcast
9:55 AM 75.2 °F - 71.6 °F 89% 30.04 in 10.0 mi ESE 11.5 mph - N/A   Overcast
10:15 AM 77.0 °F - 73.4 °F 89% 30.05 in 10.0 mi SE 13.8 mph 18.4 mph N/A   Overcast
10:35 AM 77.0 °F - 73.4 °F 89% 30.06 in 10.0 mi SE 10.4 mph 16.1 mph N/A   Overcast
11:15 AM 78.8 °F - 73.4 °F 83% 30.07 in 10.0 mi ESE 10.4 mph 17.3 mph N/A   Overcast
11:35 AM 78.8 °F - 73.4 °F 83% 30.07 in 10.0 mi SE 10.4 mph - N/A   Overcast
11:55 AM 77.0 °F - 73.4 °F 89% 30.08 in 10.0 mi SE 10.4 mph 20.7 mph N/A   Overcast
12:15 PM 78.8 °F - 73.4 °F 83% 30.07 in 10.0 mi SE 10.4 mph - N/A   Overcast
12:35 PM 78.8 °F - 73.4 °F 83% 30.07 in 10.0 mi SE 12.7 mph - N/A   Mostly Cloudy
12:55 PM 80.6 °F 85.4 °F 73.4 °F 79% 30.07 in 10.0 mi SE 10.4 mph - N/A   Overcast
1:15 PM 80.6 °F 85.4 °F 73.4 °F 79% 30.06 in 10.0 mi SE 11.5 mph - N/A   Overcast
1:35 PM 80.6 °F 85.4 °F 73.4 °F 79% 30.06 in 10.0 mi SE 15.0 mph 23.0 mph N/A   Overcast
1:55 PM 80.6 °F 85.4 °F 73.4 °F 79% 30.05 in 10.0 mi SE 13.8 mph - N/A   Overcast
2:15 PM 80.6 °F 86.2 °F 75.2 °F 84% 30.05 in 10.0 mi SE 16.1 mph 20.7 mph N/A   Mostly Cloudy
2:35 PM 80.6 °F 85.4 °F 73.4 °F 79% 30.05 in 10.0 mi ESE 10.4 mph 18.4 mph N/A   Mostly Cloudy
2:55 PM 80.6 °F 86.2 °F 75.2 °F 84% 30.05 in 10.0 mi SE 13.8 mph 18.4 mph N/A   Overcast
3:15 PM 80.6 °F 85.4 °F 73.4 °F 79% 30.05 in 10.0 mi SE 11.5 mph - N/A   Overcast
3:35 PM 80.6 °F 85.4 °F 73.4 °F 79% 30.05 in 10.0 mi SSE 11.5 mph 18.4 mph N/A   Overcast
3:55 PM 82.4 °F 89.5 °F 75.2 °F 79% 30.05 in 10.0 mi SSE 12.7 mph 17.3 mph N/A   Overcast
4:15 PM 80.6 °F 85.4 °F 73.4 °F 79% 30.05 in 10.0 mi ESE 15.0 mph 20.7 mph N/A   Mostly Cloudy
4:35 PM 80.6 °F 85.4 °F 73.4 °F 79% 30.05 in 10.0 mi SE 15.0 mph 20.7 mph N/A   Mostly Cloudy
4:55 PM 78.8 °F - 73.4 °F 83% 30.05 in 10.0 mi SE 11.5 mph 17.3 mph N/A   Mostly Cloudy
5:15 PM 78.8 °F - 73.4 °F 83% 30.05 in 10.0 mi SE 10.4 mph - N/A   Mostly Cloudy
5:35 PM 78.8 °F - 73.4 °F 83% 30.04 in 10.0 mi SE 10.4 mph - N/A   Scattered Clouds
5:55 PM 78.8 °F - 73.4 °F 83% 30.05 in 10.0 mi SE 13.8 mph - N/A   Mostly Cloudy
6:15 PM 78.8 °F - 73.4 °F 83% 30.05 in 10.0 mi SE 9.2 mph - N/A   Scattered Clouds
6:35 PM 78.8 °F - 73.4 °F 83% 30.04 in 10.0 mi SE 10.4 mph - N/A   Clear
6:56 PM 77.0 °F - 73.4 °F 89% 30.04 in 10.0 mi SE 13.8 mph 17.3 mph N/A   Clear
7:15 PM 77.0 °F - 73.4 °F 89% 30.04 in 10.0 mi SE 9.2 mph - N/A   Clear
7:35 PM 77.0 °F - 73.4 °F 89% 30.05 in 10.0 mi SE 12.7 mph - N/A   Partly Cloudy
7:55 PM 77.0 °F - 73.4 °F 89% 30.05 in 10.0 mi SE 9.2 mph - N/A   Mostly Cloudy
8:15 PM 75.2 °F - 73.4 °F 94% 30.06 in 10.0 mi ESE 9.2 mph - N/A   Scattered Clouds
8:35 PM 75.2 °F - 73.4 °F 94% 30.07 in 10.0 mi SE 8.1 mph - N/A   Partly Cloudy
8:55 PM 75.2 °F - 73.4 °F 94% 30.08 in 10.0 mi SE 8.1 mph - N/A   Mostly Cloudy
9:15 PM 75.2 °F - 71.6 °F 89% 30.08 in 10.0 mi ESE 3.5 mph - N/A   Overcast
9:35 PM 75.2 °F - 73.4 °F 94% 30.09 in 10.0 mi ESE 4.6 mph - N/A   Overcast
9:55 PM 75.2 °F - 73.4 °F 94% 30.08 in 10.0 mi ESE 9.2 mph - N/A   Overcast
10:15 PM 75.2 °F - 71.6 °F 89% 30.09 in 10.0 mi ESE 12.7 mph - N/A   Overcast
10:35 PM 75.2 °F - 71.6 °F 89% 30.08 in 10.0 mi SE 11.5 mph - N/A   Overcast
10:55 PM 75.2 °F - 71.6 °F 89% 30.08 in 10.0 mi SE 11.5 mph 16.1 mph N/A   Overcast
11:15 PM 75.2 °F - 71.6 °F 89% 30.07 in 10.0 mi ESE 10.4 mph - N/A   Overcast
11:35 PM 75.2 °F - 71.6 °F 89% 30.07 in 10.0 mi ESE 9.2 mph 17.3 mph N/A   Overcast
11:55 PM 75.2 °F - 71.6 °F 89% 30.06 in 10.0 mi SE 9.2 mph - N/A   Overcast